Regional Weather Roundup
Issued by NWS Newport/Morehead, NC

Current Version | Previous Version | Text Only | Print | Product List | Glossary On
Versions: 1 2 3 4 5 6 7 8 9 10 11 12 13 14 15 16 17 18 19 20 21 22 23 24 25 26 27 28 29 30 31 32 33 34 35 36 37 38 39 40 41 42 43 44 45 46 47 48 49 50
497
ASUS42 KMHX 201824
RWRMHX
WEATHER ROUNDUP FOR EASTERN NORTH CAROLINA
NATIONAL WEATHER SERVICE NEWPORT/MOREHEAD CITY NC
100 PM EST MON FEB 20 2017

NOTE: "FAIR" INDICATES FEW OR NO CLOUDS BELOW 12,000 FEET
WITH NO SIGNIFICANT WEATHER AND/OR OBSTRUCTIONS TO VISIBILITY

NCZ015>017-031-032-045>047-102-103-201900-
NORTH COAST

CITY           SKY/WX    TMP DP  RH WIND       PRES   REMARKS
EDENTON        SUNNY     68  43  40 SE8       30.18F
ELIZABETH CITY SUNNY     65  40  39 NE10      30.19F
KITTY HAWK     NOT AVBL
MANTEO         SUNNY     58  41  51 NE13      30.20F

$$

NCZ045>047-081-094-103-104-201900-
CENTRAL COAST

CITY           SKY/WX    TMP DP  RH WIND       PRES   REMARKS
FRISCO         SUNNY     60  46  59 NE13G20   30.18S

$$

NCZ095-097-098-100-101-201900-
SOUTHERN COAST

CITY           SKY/WX    TMP DP  RH WIND       PRES   REMARKS
BEAUFORT       SUNNY     68  43  40 NE14      30.17F
CEDAR ISLAND   NOT AVBL
JACKSONVILLE   SUNNY     70  41  34 NE5       30.15F
PINEY ISLAND   CLEAR    N/A N/A N/A NE10      30.18F
WILMINGTON     SUNNY     70  45  40 SE10      30.15F


$$

NCZ011>013-027>030-043-044-078>080-089-090>093-098-201900-
COASTAL PLAIN

CITY           SKY/WX    TMP DP  RH WIND       PRES   REMARKS
AHOSKIE          N/A     67  34  29 N8        30.19F
CLINTON        SUNNY     72  43  34 E7        30.19R
ELIZABETHTOWN  SUNNY     72  42  34 N3        30.17F
GOLDSBORO      SUNNY     70  33  25 N7        30.16F
GREENVILLE     SUNNY     70  32  24 NE10      30.19F
HAVELOCK       SUNNY     67  43  41 NE8       30.18F
KENANSVILLE    NOT AVBL
KINSTON        SUNNY     72  34  25 E5G17     30.18F
NEW BERN       SUNNY     68  42  38 N8        30.18F
RICHLANDS      SUNNY     71  42  35 NE10      30.17F
ROCKY MOUNT    SUNNY     69  35  28 N12       30.19F
WASHINGTON     SUNNY     68  34  27 NE8       30.18F
WHITEVILLE     SUNNY     71  44  38 CALM      30.17F

$$

AMZ130-135-150-152-154-156-158-170-250-252-270-ANZ085-086-088-633-658-670-201900-
MARINE OBSERVATIONS

STATION/POSITION TIME  TEMP    WIND        PRES    WAVE   SWELL
                       AIR SEA DIR/SP/G            HT/PER HT/PER
                 (UTC) (F)     (DEG/KT/KT) (MB)    (FT/S) (FT/S)
CHESAPEAKE LIGHT NOT AVBL
64 E VA BEACH    1750   51 51   10/ 14/ 16 1021.7    3/ 4
DUCK             1800   50 49   30/ 10/ 11 1022.0
2 E DUCK         1800      49                N/A     2/ 3
OREGON INLET     1800   52 51  360/ 14/ 17 1022.0
13E OREGON INLT  NOT AVBL
HATTERAS CG      1800   55 57   10/ 16/ 19 1021.5
DIAMOND BUOY     1750   58 63   10/ 17/ 19 1021.2    3/ 5
CAPE LOOKOUT     1800   58      40/ 14/ 15 1021.5
BEAUFORT LAB     1800   64 53   30/ 12/ 15 1020.7
30 SE NEW RVR IN 1808   61      60/ 16/ 19 1021.0
30 SE NEW RVR IN 1813      63                N/A     4/ 4
27 SE WRIGHTSVLE 1808   62 62   70/ 16/ 21 1020.3
5 SE WRIGHTSVLE  1808   58 57   60/  6/ 10 1021.3
225 S CAPE HAT   1750   70 71   30/ 17/ 19 1018.3    5/ 7
41 SE CHARLESTON 1750   65 69   30/  8/  8 1021.1    2/ 3

$$




USA.gov is the U.S. government's official web portal to all federal, state and local government web resources and services.